Dades meteomassalio
Diari Summary for Agost 5, 2017 Units:  Metric    English   Both
« Previous Day
Next Day »
Diari Semanal Mensual Anual Personalitzat
  Maxima: Minima: Mijana:
Temperatura: 37.4 °C 22.1 °C 29.3 °C
Rosada: 19.6 °C 13.6 °C 16.7 °C
Humitat: 67 % 31 % 48 %
Velocitat del vent: 31.5 km/h 0.0 km/h 6 km/h
Racha vent: 31.5 km/h - -
Vent:- - SW
Pressio: 1015.1 hPa 1010.4 hPa -
Pluja: 0.0 mm    
Historical Graphs
 
 
Tabular Data for Agost 5, 2017
Time Temperature Dew Point Pressure Wind Wind Speed Wind Gust Humidity Rainfall Rate (Hourly) solar Conditions
00:00 28.2 °C 13.7 °C 1013.1 hPa Calm     41 % 0.0 mm 0.0 W/m2 CLR
00:05 28.1 °C 13.6 °C 1013.1 hPa Calm     41 % 0.0 mm 0.0 W/m2 CLR
00:10 28.2 °C 13.7 °C 1013.1 hPa Calm     41 % 0.0 mm 0.0 W/m2 CLR
00:15 28.2 °C 13.7 °C 1013.1 hPa Calm     41 % 0.0 mm 0.0 W/m2 CLR
00:20 28.2 °C 13.7 °C 1013.1 hPa Calm     41 % 0.0 mm 0.0 W/m2 CLR
00:25 28.1 °C 14.0 °C 1013.1 hPa Calm     42 % 0.0 mm 0.0 W/m2 CLR
00:30 27.7 °C 13.6 °C 1013.1 hPa Calm     42 % 0.0 mm 0.0 W/m2 CLR
00:35 27.3 °C 13.6 °C 1013.1 hPa Calm     43 % 0.0 mm 0.0 W/m2 CLR
00:40 27.1 °C 13.8 °C 1013.1 hPa Calm     44 % 0.0 mm 0.0 W/m2 CLR
00:45 27.1 °C 13.8 °C 1013.1 hPa Calm     44 % 0.0 mm 0.0 W/m2 CLR
00:50 27.1 °C 13.8 °C 1013.1 hPa Calm     44 % 0.0 mm 0.0 W/m2 CLR
00:55 27.0 °C 13.7 °C 1013.1 hPa Calm     44 % 0.0 mm 0.0 W/m2 CLR
01:00 26.9 °C 13.7 °C 1013.1 hPa Calm     44 % 0.0 mm 0.0 W/m2 CLR
01:05 26.8 °C 13.9 °C 1013.1 hPa Calm     45 % 0.0 mm 0.0 W/m2 CLR
01:10 26.7 °C 13.8 °C 1013.1 hPa Calm     45 % 0.0 mm 0.0 W/m2 CLR
01:15 26.6 °C 14.0 °C 1013.1 hPa Calm     46 % 0.0 mm 0.0 W/m2 CLR
01:20 26.2 °C 14.0 °C 1013.1 hPa Calm     47 % 0.0 mm 0.0 W/m2 CLR
01:21 26.2 °C 13.9 °C 1013.1 hPa Calm     47 % 0.0 mm 0.0 W/m2 CLR
01:26 25.9 °C 13.7 °C 1013.1 hPa Calm     47 % 0.0 mm 0.0 W/m2 CLR
01:31 25.8 °C 14.0 °C 1013.1 hPa Calm     48 % 0.0 mm 0.0 W/m2 CLR
01:36 25.9 °C 14.1 °C 1013.1 hPa Calm     48 % 0.0 mm 0.0 W/m2 CLR
01:46 25.8 °C 14.0 °C 1013.1 hPa Calm     48 % 0.0 mm 0.0 W/m2 CLR
01:51 25.8 °C 13.9 °C 1013.1 hPa Calm     48 % 0.0 mm 0.0 W/m2 CLR
01:56 25.6 °C 14.1 °C 1013.1 hPa Calm     49 % 0.0 mm 0.0 W/m2 CLR
02:01 25.5 °C 14.0 °C 1013.1 hPa Calm     49 % 0.0 mm 0.0 W/m2 CLR
02:06 25.4 °C 13.9 °C 1013.1 hPa Calm     49 % 0.0 mm 0.0 W/m2 CLR
02:11 25.4 °C 13.9 °C 1013.1 hPa Calm     49 % 0.0 mm 0.0 W/m2 CLR
02:16 25.4 °C 13.9 °C 1013.1 hPa Calm     49 % 0.0 mm 0.0 W/m2 CLR
02:21 25.3 °C 14.2 °C 1013.1 hPa Calm     50 % 0.0 mm 0.0 W/m2 CLR
02:26 25.3 °C 14.2 °C 1013.1 hPa Calm     50 % 0.0 mm 0.0 W/m2 CLR
02:31 25.3 °C 14.2 °C 1013.1 hPa Calm     50 % 0.0 mm 0.0 W/m2 CLR
02:36 25.4 °C 14.3 °C 1013.1 hPa Calm     50 % 0.0 mm 0.0 W/m2 CLR
02:40 25.4 °C 14.3 °C 1013.1 hPa Calm     50 % 0.0 mm 0.0 W/m2 CLR
02:45 25.4 °C 14.3 °C 1013.1 hPa Calm     50 % 0.0 mm 0.0 W/m2 CLR
02:50 25.3 °C 14.2 °C 1013.1 hPa Calm     50 % 0.0 mm 0.0 W/m2 CLR
02:55 25.2 °C 14.4 °C 1013.1 hPa Calm     51 % 0.0 mm 0.0 W/m2 CLR
03:00 25.1 °C 14.6 °C 1013.1 hPa Calm     52 % 0.0 mm 0.0 W/m2 CLR
03:05 24.9 °C 14.3 °C 1013.1 hPa Calm     52 % 0.0 mm 0.0 W/m2 CLR
03:10 24.8 °C 14.3 °C 1013.1 hPa Calm     52 % 0.0 mm 0.0 W/m2 CLR
03:15 24.9 °C 14.7 °C 1013.1 hPa Calm     53 % 0.0 mm 0.0 W/m2 CLR
03:20 24.9 °C 14.9 °C 1013.1 hPa Calm     54 % 0.0 mm 0.0 W/m2 CLR
03:25 24.8 °C 15.2 °C 1013.4 hPa Calm     55 % 0.0 mm 0.0 W/m2 CLR
03:26 24.8 °C 15.1 °C 1013.4 hPa Calm     55 % 0.0 mm 0.0 W/m2 CLR
03:31 24.7 °C 14.7 °C 1013.4 hPa Calm     54 % 0.0 mm 0.0 W/m2 CLR
03:36 24.5 °C 14.6 °C 1013.1 hPa Calm     54 % 0.0 mm 0.0 W/m2 CLR
03:41 24.4 °C 14.8 °C 1013.4 hPa Calm     55 % 0.0 mm 0.0 W/m2 CLR
03:46 24.4 °C 14.8 °C 1013.4 hPa Calm     55 % 0.0 mm 0.0 W/m2 CLR
03:51 24.4 °C 14.8 °C 1013.4 hPa Calm     55 % 0.0 mm 0.0 W/m2 CLR
03:56 24.3 °C 14.7 °C 1013.1 hPa Calm     55 % 0.0 mm 0.0 W/m2 CLR
04:01 24.2 °C 14.6 °C 1013.1 hPa Calm     55 % 0.0 mm 0.0 W/m2 CLR
04:06 24.2 °C 14.6 °C 1013.4 hPa Calm     55 % 0.0 mm 0.0 W/m2 CLR
04:11 24.2 °C 14.6 °C 1013.4 hPa Calm     55 % 0.0 mm 0.0 W/m2 CLR
04:16 24.2 °C 14.9 °C 1013.4 hPa Calm     56 % 0.0 mm 0.0 W/m2 CLR
04:21 24.2 °C 14.8 °C 1013.4 hPa Calm     56 % 0.0 mm 0.0 W/m2 CLR
04:26 24.1 °C 14.7 °C 1013.4 hPa Calm     56 % 0.0 mm 0.0 W/m2 CLR
04:31 23.9 °C 14.9 °C 1013.4 hPa Calm     57 % 0.0 mm 0.0 W/m2 CLR
04:36 23.9 °C 14.9 °C 1013.4 hPa Calm     57 % 0.0 mm 0.0 W/m2 CLR
04:41 23.9 °C 14.9 °C 1013.4 hPa Calm     57 % 0.0 mm 0.0 W/m2 CLR
04:46 24.0 °C 14.9 °C 1013.4 hPa Calm     57 % 0.0 mm 0.0 W/m2 CLR
04:50 24.1 °C 15.0 °C 1013.4 hPa Calm     57 % 0.0 mm 0.0 W/m2 CLR
04:55 24.1 °C 15.0 °C 1013.4 hPa Calm     57 % 0.0 mm 0.0 W/m2 CLR
05:00 24.0 °C 15.2 °C 1013.1 hPa Calm     58 % 0.0 mm 0.0 W/m2 CLR
05:05 24.0 °C 15.2 °C 1013.4 hPa Calm     58 % 0.0 mm 0.0 W/m2 CLR
05:10 24.0 °C 15.2 °C 1013.4 hPa Calm     58 % 0.0 mm 0.0 W/m2 CLR
05:16 23.9 °C 15.1 °C 1013.1 hPa Calm     58 % 0.0 mm 0.0 W/m2 CLR
05:19 23.8 °C 15.1 °C 1013.1 hPa Calm     58 % 0.0 mm 0.0 W/m2 CLR
05:21 23.8 °C 15.0 °C 1013.1 hPa Calm     58 % 0.0 mm 0.0 W/m2 CLR
05:25 23.7 °C 15.2 °C 1013.4 hPa Calm     59 % 0.0 mm 0.0 W/m2 CLR
05:26 23.7 °C 15.2 °C 1013.4 hPa Calm     59 % 0.0 mm 0.0 W/m2 CLR
05:27 23.6 °C 15.1 °C 1013.1 hPa Calm     59 % 0.0 mm 0.0 W/m2 CLR
05:32 23.5 °C 15.0 °C 1013.1 hPa Calm     59 % 0.0 mm 0.0 W/m2 CLR
05:37 23.4 °C 15.2 °C 1013.1 hPa Calm     60 % 0.0 mm 0.0 W/m2 CLR
05:42 23.3 °C 15.1 °C 1013.1 hPa Calm     60 % 0.0 mm 0.0 W/m2 CLR
05:47 23.2 °C 15.2 °C 1013.4 hPa Calm     61 % 0.0 mm 0.0 W/m2 CLR
05:52 23.1 °C 15.1 °C 1013.4 hPa Calm     61 % 0.0 mm 0.0 W/m2 CLR
05:57 23.0 °C 15.1 °C 1013.1 hPa Calm     61 % 0.0 mm 0.0 W/m2 CLR
06:02 23.0 °C 15.3 °C 1013.4 hPa Calm     62 % 0.0 mm 0.0 W/m2 CLR
06:07 22.9 °C 15.3 °C 1013.4 hPa Calm     62 % 0.0 mm 0.0 W/m2 CLR
06:12 22.9 °C 15.3 °C 1013.4 hPa Calm     62 % 0.0 mm 0.0 W/m2 CLR
06:17 22.9 °C 15.2 °C 1013.4 hPa Calm     62 % 0.0 mm 0.0 W/m2 CLR
06:22 22.8 °C 15.1 °C 1013.4 hPa Calm     62 % 0.0 mm 0.0 W/m2 CLR
06:27 22.7 °C 15.3 °C 1013.4 hPa Calm     63 % 0.0 mm 0.0 W/m2 CLR
06:32 22.6 °C 15.2 °C 1013.4 hPa Calm     63 % 0.0 mm 0.0 W/m2 CLR
06:37 22.6 °C 15.4 °C 1013.4 hPa Calm     64 % 0.0 mm 0.0 W/m2 CLR
06:42 22.4 °C 15.3 °C 1013.4 hPa Calm     64 % 0.0 mm 0.0 W/m2 CLR
06:47 22.4 °C 15.5 °C 1013.4 hPa Calm     65 % 0.0 mm 0.0 W/m2 CLR
06:52 22.4 °C 15.5 °C 1013.4 hPa Calm     65 % 0.0 mm 0.0 W/m2 OVC
06:57 22.4 °C 15.5 °C 1013.4 hPa Calm     65 % 0.0 mm 0.0 W/m2 OVC
07:02 22.3 °C 15.4 °C 1013.4 hPa Calm     65 % 0.0 mm 5.0 W/m2 OVC
07:07 22.2 °C 15.3 °C 1013.8 hPa Calm     65 % 0.0 mm 7.0 W/m2 BKN
07:12 22.1 °C 15.4 °C 1013.8 hPa Calm     66 % 0.0 mm 11.0 W/m2 BKN
07:17 22.1 °C 15.4 °C 1013.8 hPa Calm     66 % 0.0 mm 14.0 W/m2 BKN
07:22 22.2 °C 15.5 °C 1013.8 hPa Calm     66 % 0.0 mm 23.0 W/m2 BKN
07:27 22.2 °C 15.8 °C 1013.8 hPa Calm     67 % 0.0 mm 26.0 W/m2 BKN
07:32 22.3 °C 15.8 °C 1013.4 hPa Calm     67 % 0.0 mm 33.0 W/m2 BKN
07:37 22.4 °C 15.7 °C 1013.4 hPa Calm     66 % 0.0 mm 39.0 W/m2 BKN
07:42 22.5 °C 15.8 °C 1013.4 hPa Calm     66 % 0.0 mm 42.0 W/m2 BKN
07:47 22.7 °C 16.0 °C 1013.4 hPa Calm     66 % 0.0 mm 51.0 W/m2 SCT
07:52 22.8 °C 16.1 °C 1013.4 hPa Calm     66 % 0.0 mm 49.0 W/m2 SCT
07:57 22.7 °C 16.1 °C 1013.4 hPa Calm     66 % 0.0 mm 39.0 W/m2 BKN
08:02 22.7 °C 16.1 °C 1013.4 hPa Calm     66 % 0.0 mm 37.0 W/m2 BKN
08:07 22.7 °C 16.1 °C 1013.4 hPa Calm     66 % 0.0 mm 39.0 W/m2 BKN
08:12 22.9 °C 16.2 °C 1013.8 hPa Calm     66 % 0.0 mm 88.0 W/m2 SCT
08:17 23.1 °C 16.2 °C 1013.8 hPa Calm     65 % 0.0 mm 74.0 W/m2 SCT
08:22 23.3 °C 16.3 °C 1013.8 hPa Calm     65 % 0.0 mm 114.0 W/m2 FEW
08:27 23.4 °C 16.2 °C 1013.8 hPa Calm     64 % 0.0 mm 127.0 W/m2 CLR
08:32 23.6 °C 16.4 °C 1013.8 hPa Calm     64 % 0.0 mm 167.0 W/m2 CLR
08:37 23.9 °C 16.7 °C 1013.8 hPa Calm     64 % 0.0 mm 197.0 W/m2 CLR
08:42 24.2 °C 16.7 °C 1013.8 hPa Calm     63 % 0.0 mm 213.0 W/m2 CLR
08:47 24.6 °C 16.8 °C 1013.8 hPa Calm     62 % 0.0 mm 223.0 W/m2 CLR
08:52 25.0 °C 16.9 °C 1014.1 hPa Calm     61 % 0.0 mm 239.0 W/m2 CLR
08:57 25.3 °C 16.9 °C 1014.1 hPa Calm     60 % 0.0 mm 255.0 W/m2 CLR
09:02 25.7 °C 17.3 °C 1014.1 hPa Calm     60 % 0.0 mm 274.0 W/m2 CLR
09:07 26.1 °C 17.7 °C 1014.1 hPa Calm     60 % 0.0 mm 290.0 W/m2 CLR
09:12 26.4 °C 17.7 °C 1014.1 hPa Calm     59 % 0.0 mm 304.0 W/m2 CLR
09:17 26.8 °C 17.8 °C 1014.1 hPa Calm     58 % 0.0 mm 320.0 W/m2 CLR
09:22 27.3 °C 18.0 °C 1014.1 hPa Calm     57 % 0.0 mm 334.0 W/m2 CLR
09:27 27.7 °C 18.1 °C 1014.1 hPa WNW 11.1 km/h 11.1 km/h 56 % 0.0 mm 350.0 W/m2 CLR
09:32 27.9 °C 18.3 °C 1014.1 hPa NNW 14.8 km/h 14.8 km/h 56 % 0.0 mm 366.0 W/m2 CLR
09:37 28.0 °C 18.1 °C 1014.1 hPa NNW 14.8 km/h 14.8 km/h 55 % 0.0 mm 380.0 W/m2 CLR
09:42 27.9 °C 18.1 °C 1014.1 hPa NW 11.1 km/h 11.1 km/h 55 % 0.0 mm 100.0 W/m2 CLR
09:47 28.0 °C 18.4 °C 1014.1 hPa NNW 11.1 km/h   56 % 0.0 mm 188.0 W/m2 CLR
09:52 28.1 °C 18.2 °C 1014.1 hPa NNW 18.5 km/h 18.5 km/h 55 % 0.0 mm 429.0 W/m2 CLR
09:57 28.1 °C 18.2 °C 1014.1 hPa North 7.4 km/h 7.4 km/h 55 % 0.0 mm 441.0 W/m2 CLR
10:02 28.1 °C 18.2 °C 1014.1 hPa NW 11.1 km/h 11.1 km/h 55 % 0.0 mm 457.0 W/m2 CLR
10:07 28.1 °C 18.2 °C 1014.1 hPa Calm     55 % 0.0 mm 471.0 W/m2 CLR
10:12 28.3 °C 18.4 °C 1014.1 hPa North 5.6 km/h 5.6 km/h 55 % 0.0 mm 485.0 W/m2 CLR
10:17 28.6 °C 18.3 °C 1014.1 hPa North 17.7 km/h 17.7 km/h 54 % 0.0 mm 506.0 W/m2 CLR
10:21 28.7 °C 18.5 °C 1014.1 hPa NE 9.7 km/h 9.7 km/h 54 % 0.0 mm 520.0 W/m2 CLR
10:26 28.8 °C 18.3 °C 1014.1 hPa NNE 13.0 km/h 13.0 km/h 53 % 0.0 mm 534.0 W/m2 CLR
10:31 29.0 °C 18.4 °C 1014.1 hPa NE 9.3 km/h 9.3 km/h 53 % 0.0 mm 545.0 W/m2 CLR
10:36 29.3 °C 18.4 °C 1014.1 hPa ENE 7.4 km/h   52 % 0.0 mm 561.0 W/m2 CLR
10:41 29.6 °C 18.4 °C 1014.1 hPa North 13.0 km/h 13.0 km/h 51 % 0.0 mm 573.0 W/m2 CLR
10:46 29.5 °C 18.3 °C 1014.1 hPa Calm     51 % 0.0 mm 587.0 W/m2 CLR
10:51 29.7 °C 18.4 °C 1014.1 hPa Calm     51 % 0.0 mm 601.0 W/m2 CLR
10:52 29.7 °C 18.4 °C 1014.1 hPa Calm     51 % 0.0 mm 601.0 W/m2 CLR
10:57 30.1 °C 18.6 °C 1014.1 hPa Calm     50 % 0.0 mm 615.0 W/m2 CLR
11:02 30.4 °C 18.5 °C 1014.1 hPa NE 7.4 km/h 7.4 km/h 49 % 0.0 mm 628.0 W/m2 CLR
11:07 30.7 °C 18.4 °C 1014.1 hPa North 9.3 km/h 9.3 km/h 48 % 0.0 mm 640.0 W/m2 CLR
11:12 30.5 °C 18.2 °C 1014.1 hPa North 9.3 km/h 9.3 km/h 48 % 0.0 mm 652.0 W/m2 CLR
11:17 30.4 °C 18.2 °C 1014.1 hPa Calm     48 % 0.0 mm 659.0 W/m2 CLR
11:22 30.8 °C 18.5 °C 1014.1 hPa North 3.2 km/h 3.2 km/h 48 % 0.0 mm 679.0 W/m2 CLR
11:27 30.8 °C 18.5 °C 1014.1 hPa ENE 1.9 km/h   48 % 0.0 mm 686.0 W/m2 CLR
11:32 30.9 °C 18.3 °C 1014.1 hPa Calm     47 % 0.0 mm 700.0 W/m2 CLR
11:37 31.0 °C 18.4 °C 1013.8 hPa Calm     47 % 0.0 mm 714.0 W/m2 CLR
11:42 31.2 °C 18.2 °C 1013.8 hPa Calm     46 % 0.0 mm 721.0 W/m2 CLR
11:47 31.1 °C 18.1 °C 1013.8 hPa Calm     46 % 0.0 mm 729.0 W/m2 CLR
11:52 31.1 °C 18.4 °C 1013.8 hPa Calm     47 % 0.0 mm 738.0 W/m2 CLR
11:57 31.4 °C 18.8 °C 1013.8 hPa ENE 6.4 km/h 6.4 km/h 47 % 0.0 mm 749.0 W/m2 CLR
12:02 31.7 °C 18.7 °C 1013.8 hPa Calm   1.3 km/h 46 % 0.0 mm 756.0 W/m2 CLR
12:07 31.7 °C 18.7 °C 1013.8 hPa ENE 3.7 km/h 3.7 km/h 46 % 0.0 mm 770.0 W/m2 CLR
12:12 31.9 °C 18.5 °C 1013.8 hPa Calm     45 % 0.0 mm 775.0 W/m2 CLR
12:17 32.2 °C 18.4 °C 1013.8 hPa Calm     44 % 0.0 mm 780.0 W/m2 CLR
12:22 32.3 °C 18.5 °C 1013.8 hPa Calm     44 % 0.0 mm 738.0 W/m2 CLR
12:27 32.7 °C 18.4 °C 1013.8 hPa Calm     43 % 0.0 mm 796.0 W/m2 CLR
12:32 33.1 °C 18.8 °C 1013.4 hPa Calm     43 % 0.0 mm 812.0 W/m2 CLR
12:37 33.3 °C 18.2 °C 1013.4 hPa NE 5.6 km/h 5.6 km/h 41 % 0.0 mm 816.0 W/m2 CLR
12:42 33.4 °C 18.4 °C 1013.4 hPa NE 7.4 km/h 7.4 km/h 41 % 0.0 mm 823.0 W/m2 CLR
12:47 33.4 °C 18.3 °C 1013.4 hPa Calm     41 % 0.0 mm 831.0 W/m2 CLR
12:52 33.1 °C 18.1 °C 1013.4 hPa Calm     41 % 0.0 mm 835.0 W/m2 CLR
12:57 33.1 °C 18.1 °C 1013.4 hPa Calm     41 % 0.0 mm 840.0 W/m2 CLR
13:02 33.4 °C 18.3 °C 1013.1 hPa NE 8.0 km/h 8.0 km/h 41 % 0.0 mm 844.0 W/m2 CLR
13:07 33.6 °C 18.2 °C 1013.1 hPa Calm     40 % 0.0 mm 849.0 W/m2 CLR
13:12 33.8 °C 17.9 °C 1013.1 hPa Calm     39 % 0.0 mm 854.0 W/m2 CLR
13:17 34.2 °C 18.2 °C 1013.1 hPa ENE 1.9 km/h 1.9 km/h 39 % 0.0 mm 860.0 W/m2 CLR
13:22 34.6 °C 18.2 °C 1013.1 hPa Calm     38 % 0.0 mm 863.0 W/m2 CLR
13:27 34.8 °C 17.9 °C 1013.1 hPa Calm     37 % 0.0 mm 865.0 W/m2 CLR
13:32 34.8 °C 18.4 °C 1012.8 hPa North 6.4 km/h 6.4 km/h 38 % 0.0 mm 868.0 W/m2 CLR
13:37 34.6 °C 18.6 °C 1012.8 hPa ENE 9.3 km/h 9.3 km/h 39 % 0.0 mm 870.0 W/m2 CLR
13:42 34.7 °C 18.7 °C 1012.8 hPa NNE 14.8 km/h 14.8 km/h 39 % 0.0 mm 867.0 W/m2 CLR
13:47 34.8 °C 18.8 °C 1012.8 hPa ENE 9.3 km/h 9.3 km/h 39 % 0.0 mm 870.0 W/m2 CLR
13:52 35.0 °C 18.6 °C 1012.8 hPa Calm     38 % 0.0 mm 874.0 W/m2 CLR
13:57 35.0 °C 18.6 °C 1012.8 hPa NW 14.8 km/h 14.8 km/h 38 % 0.0 mm 877.0 W/m2 CLR
14:02 34.9 °C 18.9 °C 1012.4 hPa NE 17.7 km/h 17.7 km/h 39 % 0.0 mm 874.0 W/m2 CLR
14:07 35.1 °C 18.7 °C 1012.4 hPa NE 16.7 km/h 16.7 km/h 38 % 0.0 mm 881.0 W/m2 CLR
14:12 34.9 °C 18.5 °C 1012.4 hPa NNW 18.5 km/h 18.5 km/h 38 % 0.0 mm 877.0 W/m2 CLR
14:17 34.8 °C 18.8 °C 1012.4 hPa North 16.7 km/h 16.7 km/h 39 % 0.0 mm 870.0 W/m2 CLR
14:22 34.9 °C 18.5 °C 1012.4 hPa NE 18.5 km/h 18.5 km/h 38 % 0.0 mm 868.0 W/m2 CLR
14:27 34.9 °C 18.9 °C 1012.4 hPa NNE 11.1 km/h 11.1 km/h 39 % 0.0 mm 875.0 W/m2 CLR
14:32 35.2 °C 18.8 °C 1012.4 hPa North 18.5 km/h 18.5 km/h 38 % 0.0 mm 882.0 W/m2 CLR
14:37 35.1 °C 18.6 °C 1012.1 hPa NNE 13.0 km/h 13.0 km/h 38 % 0.0 mm 865.0 W/m2 CLR
14:42 35.3 °C 18.8 °C 1012.1 hPa NNE 16.7 km/h 16.7 km/h 38 % 0.0 mm 863.0 W/m2 CLR
14:47 35.4 °C 18.6 °C 1012.1 hPa East 11.1 km/h 11.1 km/h 37 % 0.0 mm 877.0 W/m2 CLR
14:52 35.5 °C 19.0 °C 1011.7 hPa NNW 13.0 km/h 13.0 km/h 38 % 0.0 mm 907.0 W/m2 CLR
14:57 35.6 °C 18.6 °C 1011.7 hPa NNE 7.4 km/h 7.4 km/h 37 % 0.0 mm 921.0 W/m2 CLR
15:02 35.4 °C 18.5 °C 1011.7 hPa North 9.7 km/h 9.7 km/h 37 % 0.0 mm 253.0 W/m2 CLR
15:07 35.6 °C 18.6 °C 1011.7 hPa NNW 13.0 km/h 13.0 km/h 37 % 0.0 mm 768.0 W/m2 CLR
15:12 35.7 °C 18.8 °C 1011.7 hPa North 11.1 km/h   37 % 0.0 mm 840.0 W/m2 CLR
15:17 36.2 °C 18.7 °C 1011.7 hPa NE 14.8 km/h 14.8 km/h 36 % 0.0 mm 842.0 W/m2 CLR
15:22 36.3 °C 18.8 °C 1011.7 hPa NE 5.6 km/h 5.6 km/h 36 % 0.0 mm 830.0 W/m2 CLR
15:27 36.6 °C 19.1 °C 1011.7 hPa NW 8.0 km/h 8.0 km/h 36 % 0.0 mm 828.0 W/m2 CLR
15:32 36.6 °C 19.1 °C 1011.4 hPa WNW 11.1 km/h 11.1 km/h 36 % 0.0 mm 826.0 W/m2 CLR
15:37 36.7 °C 18.7 °C 1011.4 hPa NNW 14.8 km/h 14.8 km/h 35 % 0.0 mm 828.0 W/m2 CLR
15:42 36.7 °C 18.8 °C 1011.4 hPa North 9.7 km/h 9.7 km/h 35 % 0.0 mm 826.0 W/m2 CLR
15:47 36.8 °C 18.8 °C 1011.4 hPa NNE 14.8 km/h 14.8 km/h 35 % 0.0 mm 847.0 W/m2 CLR
15:52 36.4 °C 18.5 °C 1011.4 hPa NW 9.3 km/h 9.3 km/h 35 % 0.0 mm 380.0 W/m2 CLR
15:57 36.4 °C 18.9 °C 1011.4 hPa WNW 5.6 km/h 5.6 km/h 36 % 0.0 mm 842.0 W/m2 CLR
16:02 36.8 °C 19.3 °C 1011.4 hPa WNW 9.3 km/h 9.3 km/h 36 % 0.0 mm 837.0 W/m2 CLR
16:07 36.8 °C 18.8 °C 1011.4 hPa NNE 24.1 km/h 24.1 km/h 35 % 0.0 mm 761.0 W/m2 CLR
16:12 36.5 °C 19.0 °C 1011.4 hPa NW 11.1 km/h 11.1 km/h 36 % 0.0 mm 817.0 W/m2 CLR
16:17 36.7 °C 18.8 °C 1011.1 hPa NW 14.8 km/h 14.8 km/h 35 % 0.0 mm 772.0 W/m2 CLR
16:22 36.9 °C 18.9 °C 1011.1 hPa NNE 18.5 km/h 18.5 km/h 35 % 0.0 mm 694.0 W/m2 CLR
16:32 36.8 °C 18.8 °C 1011.1 hPa NNW 5.6 km/h 5.6 km/h 35 % 0.0 mm 652.0 W/m2 CLR
16:37 36.9 °C 18.9 °C 1011.1 hPa Calm     35 % 0.0 mm 717.0 W/m2 CLR
16:42 37.0 °C 19.0 °C 1011.1 hPa NNE 11.1 km/h 11.1 km/h 35 % 0.0 mm 640.0 W/m2 CLR
16:47 37.0 °C 19.0 °C 1011.1 hPa NW 11.1 km/h 11.1 km/h 35 % 0.0 mm 689.0 W/m2 CLR
16:57 37.4 °C 18.9 °C 1011.1 hPa North 9.3 km/h 9.3 km/h 34 % 0.0 mm 533.0 W/m2 CLR
17:02 37.4 °C 18.9 °C 1011.1 hPa West 1.9 km/h 1.9 km/h 34 % 0.0 mm 214.0 W/m2 CLR
17:07 37.2 °C 18.7 °C 1011.1 hPa NNE 5.6 km/h   34 % 0.0 mm 241.0 W/m2 CLR
17:12 36.8 °C 18.8 °C 1011.1 hPa NNW 7.4 km/h 7.4 km/h 35 % 0.0 mm 218.0 W/m2 CLR
17:17 36.5 °C 18.6 °C 1011.1 hPa WNW 11.1 km/h 11.1 km/h 35 % 0.0 mm 223.0 W/m2 CLR
17:22 36.2 °C 18.3 °C 1011.1 hPa WNW 16.7 km/h 16.7 km/h 35 % 0.0 mm 218.0 W/m2 CLR
17:27 36.0 °C 18.1 °C 1011.1 hPa WNW 14.5 km/h 14.5 km/h 35 % 0.0 mm 207.0 W/m2 CLR
17:32 35.7 °C 18.3 °C 1011.1 hPa West 7.4 km/h 7.4 km/h 36 % 0.0 mm 199.0 W/m2 CLR
17:37 35.7 °C 18.3 °C 1011.1 hPa WNW 16.7 km/h 16.7 km/h 36 % 0.0 mm 192.0 W/m2 CLR
17:42 35.6 °C 18.2 °C 1011.1 hPa WSW 5.6 km/h 5.6 km/h 36 % 0.0 mm 183.0 W/m2 CLR
17:47 35.4 °C 18.1 °C 1011.1 hPa West 14.8 km/h 14.8 km/h 36 % 0.0 mm 183.0 W/m2 CLR
17:52 35.3 °C 18.0 °C 1011.1 hPa West 7.4 km/h 7.4 km/h 36 % 0.0 mm 181.0 W/m2 CLR
17:57 35.2 °C 18.3 °C 1011.1 hPa West 9.7 km/h 9.7 km/h 37 % 0.0 mm 178.0 W/m2 CLR
18:02 35.3 °C 17.9 °C 1010.7 hPa WSW 7.4 km/h 7.4 km/h 36 % 0.0 mm 178.0 W/m2 CLR
18:07 35.2 °C 17.9 °C 1010.7 hPa WSW 5.6 km/h 5.6 km/h 36 % 0.0 mm 188.0 W/m2 CLR
18:12 35.1 °C 18.2 °C 1010.7 hPa Calm     37 % 0.0 mm 193.0 W/m2 CLR
18:17 35.1 °C 18.2 °C 1010.7 hPa Calm     37 % 0.0 mm 216.0 W/m2 CLR
18:22 35.3 °C 18.4 °C 1010.7 hPa West 7.4 km/h 7.4 km/h 37 % 0.0 mm 283.0 W/m2 CLR
18:27 35.6 °C 18.2 °C 1010.7 hPa Calm     36 % 0.0 mm 506.0 W/m2 CLR
18:32 36.1 °C 18.6 °C 1010.4 hPa Calm     36 % 0.0 mm 554.0 W/m2 CLR
18:37 36.1 °C 18.2 °C 1010.7 hPa SSW 1.9 km/h 1.9 km/h 35 % 0.0 mm 262.0 W/m2 CLR
18:42 36.2 °C 18.3 °C 1010.7 hPa West 7.4 km/h 7.4 km/h 35 % 0.0 mm 538.0 W/m2 CLR
18:47 36.4 °C 18.5 °C 1010.4 hPa Calm     35 % 0.0 mm 466.0 W/m2 CLR
18:48 36.5 °C 18.6 °C 1010.4 hPa Calm     35 % 0.0 mm 455.0 W/m2 CLR
18:53 36.8 °C 18.3 °C 1010.4 hPa Calm     34 % 0.0 mm 352.0 W/m2 CLR
18:58 36.7 °C 18.3 °C 1010.4 hPa Calm     34 % 0.0 mm 165.0 W/m2 CLR
19:03 36.4 °C 18.1 °C 1010.4 hPa Calm     34 % 0.0 mm 121.0 W/m2 CLR
19:08 36.4 °C 19.4 °C 1010.4 hPa Calm     37 % 0.0 mm 332.0 W/m2 CLR
19:13 36.3 °C 18.4 °C 1010.4 hPa WSW 3.7 km/h 3.7 km/h 35 % 0.0 mm 207.0 W/m2 CLR
19:18 36.1 °C 17.8 °C 1010.7 hPa Calm     34 % 0.0 mm 162.0 W/m2 CLR
19:23 36.0 °C 17.7 °C 1010.7 hPa Calm     34 % 0.0 mm 104.0 W/m2 CLR
19:28 35.7 °C 19.6 °C 1010.7 hPa Calm     39 % 0.0 mm 86.0 W/m2 CLR
19:33 35.4 °C 17.7 °C 1010.7 hPa West 9.7 km/h 9.7 km/h 35 % 0.0 mm 77.0 W/m2 CLR
19:38 35.3 °C 18.0 °C 1010.7 hPa West 5.6 km/h 5.6 km/h 36 % 0.0 mm 77.0 W/m2 FEW
19:43 35.2 °C 17.9 °C 1010.7 hPa WNW 5.6 km/h 5.6 km/h 36 % 0.0 mm 74.0 W/m2 FEW
19:48 35.1 °C 17.8 °C 1010.7 hPa WSW 7.4 km/h 7.4 km/h 36 % 0.0 mm 72.0 W/m2 FEW
19:53 35.0 °C 17.7 °C 1010.7 hPa SW 5.6 km/h 5.6 km/h 36 % 0.0 mm 69.0 W/m2 FEW
19:58 34.9 °C 15.7 °C 1011.1 hPa SW 16.1 km/h 16.1 km/h 32 % 0.0 mm 91.0 W/m2 FEW
20:03 34.9 °C 15.3 °C 1011.1 hPa SW 14.8 km/h 14.8 km/h 31 % 0.0 mm 146.0 W/m2 CLR
20:08 35.0 °C 16.3 °C 1011.1 hPa SW 16.7 km/h 16.7 km/h 33 % 0.0 mm 135.0 W/m2 CLR
20:13 35.0 °C 15.8 °C 1011.1 hPa SW 13.0 km/h 13.0 km/h 32 % 0.0 mm 111.0 W/m2 CLR
20:18 34.8 °C 15.7 °C 1011.1 hPa West 16.7 km/h 16.7 km/h 32 % 0.0 mm 111.0 W/m2 CLR
20:23 34.3 °C 16.7 °C 1011.1 hPa West 18.5 km/h 18.5 km/h 35 % 0.0 mm 95.0 W/m2 CLR
20:28 34.2 °C 16.5 °C 1011.1 hPa West 11.1 km/h 11.1 km/h 35 % 0.0 mm 84.0 W/m2 CLR
20:33 34.1 °C 16.9 °C 1010.7 hPa WSW 7.4 km/h 7.4 km/h 36 % 0.0 mm 74.0 W/m2 FEW
20:38 33.9 °C 16.8 °C 1010.7 hPa West 11.1 km/h 11.1 km/h 36 % 0.0 mm 60.0 W/m2 SCT
20:43 33.9 °C 16.7 °C 1010.7 hPa West 8.0 km/h 8.0 km/h 36 % 0.0 mm 51.0 W/m2 SCT
20:48 33.8 °C 17.1 °C 1010.7 hPa Calm     37 % 0.0 mm 42.0 W/m2 BKN
20:53 33.7 °C 17.0 °C 1011.1 hPa Calm     37 % 0.0 mm 40.0 W/m2 BKN
20:58 33.6 °C 17.3 °C 1011.1 hPa West 3.7 km/h 3.7 km/h 38 % 0.0 mm 37.0 W/m2 BKN
21:03 33.0 °C 18.0 °C 1011.7 hPa NW 25.9 km/h 25.9 km/h 41 % 0.0 mm 32.0 W/m2 BKN
21:08 32.0 °C 17.8 °C 1011.7 hPa NW 25.9 km/h 25.9 km/h 43 % 0.0 mm 26.0 W/m2 BKN
21:13 31.3 °C 17.6 °C 1011.7 hPa NNW 31.5 km/h 31.5 km/h 44 % 0.0 mm 19.0 W/m2 BKN
21:18 30.8 °C 17.5 °C 1011.7 hPa NW 31.5 km/h 31.5 km/h 45 % 0.0 mm 12.0 W/m2 OVC
21:23 30.4 °C 17.5 °C 1011.7 hPa NW 27.8 km/h 27.8 km/h 46 % 0.0 mm 0.0 W/m2 CLR
21:28 30.2 °C 17.3 °C 1012.1 hPa NW 19.3 km/h 19.3 km/h 46 % 0.0 mm 0.0 W/m2 CLR
21:33 29.8 °C 16.9 °C 1012.4 hPa NW 27.8 km/h 27.8 km/h 46 % 0.0 mm 0.0 W/m2 CLR
21:43 29.2 °C 17.1 °C 1012.4 hPa NW 31.5 km/h 31.5 km/h 48 % 0.0 mm 0.0 W/m2 CLR
21:48 28.8 °C 16.7 °C 1012.8 hPa West 29.6 km/h 29.6 km/h 48 % 0.0 mm 0.0 W/m2 CLR
21:53 28.5 °C 16.4 °C 1012.8 hPa NW 24.1 km/h 24.1 km/h 48 % 0.0 mm 0.0 W/m2 CLR
21:58 28.2 °C 16.5 °C 1013.1 hPa WNW 18.5 km/h 18.5 km/h 49 % 0.0 mm 0.0 W/m2 CLR
22:03 27.9 °C 16.2 °C 1013.1 hPa NW 29.0 km/h 29.0 km/h 49 % 0.0 mm 0.0 W/m2 CLR
22:08 27.6 °C 16.2 °C 1013.4 hPa WNW 18.5 km/h 18.5 km/h 50 % 0.0 mm 0.0 W/m2 CLR
22:12 27.3 °C 16.0 °C 1013.4 hPa NW 22.2 km/h 22.2 km/h 50 % 0.0 mm 0.0 W/m2 CLR
22:22 26.9 °C 15.9 °C 1013.8 hPa NW 20.4 km/h 20.4 km/h 51 % 0.0 mm 0.0 W/m2 CLR
22:27 26.8 °C 15.8 °C 1013.8 hPa West 31.5 km/h 31.5 km/h 51 % 0.0 mm 0.0 W/m2 CLR
22:32 26.7 °C 15.7 °C 1013.8 hPa WNW 22.2 km/h 22.2 km/h 51 % 0.0 mm 0.0 W/m2 CLR
22:37 26.7 °C 15.7 °C 1013.8 hPa WNW 9.3 km/h 9.3 km/h 51 % 0.0 mm 0.0 W/m2 CLR
22:42 26.6 °C 15.9 °C 1014.1 hPa NW 18.5 km/h 18.5 km/h 52 % 0.0 mm 0.0 W/m2 CLR
22:47 26.4 °C 15.7 °C 1014.1 hPa West 14.8 km/h 14.8 km/h 52 % 0.0 mm 0.0 W/m2 CLR
22:52 26.2 °C 15.6 °C 1014.1 hPa WNW 16.7 km/h 16.7 km/h 52 % 0.0 mm 0.0 W/m2 CLR
22:57 26.0 °C 15.4 °C 1014.1 hPa WNW 18.5 km/h 18.5 km/h 52 % 0.0 mm 0.0 W/m2 CLR
23:02 25.8 °C 15.5 °C 1014.1 hPa WNW 17.7 km/h 17.7 km/h 53 % 0.0 mm 0.0 W/m2 CLR
23:07 25.6 °C 15.3 °C 1014.4 hPa NW 18.5 km/h 18.5 km/h 53 % 0.0 mm 0.0 W/m2 CLR
23:12 25.4 °C 15.4 °C 1014.8 hPa WNW 19.3 km/h 19.3 km/h 54 % 0.0 mm 0.0 W/m2 CLR
23:13 25.4 °C 15.4 °C 1014.4 hPa WNW 18.5 km/h 18.5 km/h 54 % 0.0 mm 0.0 W/m2 CLR
23:18 25.2 °C 15.2 °C 1014.8 hPa WNW 25.9 km/h 25.9 km/h 54 % 0.0 mm 0.0 W/m2 CLR
23:23 24.9 °C 15.2 °C 1014.8 hPa WNW 17.7 km/h 17.7 km/h 55 % 0.0 mm 0.0 W/m2 CLR
23:28 24.8 °C 15.2 °C 1014.8 hPa West 24.1 km/h 24.1 km/h 55 % 0.0 mm 0.0 W/m2 CLR
23:33 24.8 °C 15.1 °C 1014.8 hPa WNW 16.7 km/h 16.7 km/h 55 % 0.0 mm 0.0 W/m2 CLR
23:38 24.7 °C 15.3 °C 1015.1 hPa WNW 18.5 km/h 18.5 km/h 56 % 0.0 mm 0.0 W/m2 CLR
23:43 24.6 °C 15.2 °C 1015.1 hPa Calm     56 % 0.0 mm 0.0 W/m2 CLR
23:48 24.5 °C 15.2 °C 1015.1 hPa West 7.4 km/h 7.4 km/h 56 % 0.0 mm 0.0 W/m2 CLR
23:53 24.4 °C 15.1 °C 1015.1 hPa Calm     56 % 0.0 mm 0.0 W/m2 CLR
23:54 24.4 °C 15.4 °C 1015.1 hPa Calm     57 % 0.0 mm 0.0 W/m2 CLR
23:59 24.3 °C 15.3 °C 1015.1 hPa WSW 7.4 km/h 7.4 km/h 57 % 0.0 mm 0.0 W/m2 CLR
Lo Temps de Massalio
Compliments of Weather Underground - 1.25 mb